Location: Oshawa
(43.9000°N, 78.8670°W)
Time: 10:37:16
(UTC-04:00)

Cosmos 1707 Rocket - Visible Passes

Search period start: 21 July 2017 00:00
Search period end: 31 July 2017 00:00
Orbit: 606 x 631 km, 82.5° (Epoch: 20 July)

Date Brightness Start Highest point End Pass type
(mag) Time Alt. Az. Time Alt. Az. Time Alt. Az.
21 Jul 6.7 22:12:23 10° WNW 22:13:27 11° W 22:14:30 10° W visible
24 Jul 6.3 21:24:31 10° NW 21:27:36 19° W 21:30:39 10° SW visible
25 Jul 7.0 21:43:57 10° WNW 21:44:30 10° W 21:45:03 10° W visible
